Location: Roismala
(61.3000°N, 22.9333°E)
Time: 13:56:05
(UTC+00:00)

Daily predictions for brighter satellites

Satellite Brightness Start Highest point End
(mag) Time Altitude Azimuth Time Altitude Azimuth Time Altitude Azimuth
Cosmos 2278 Rocket 3.0 14:40:22 10° W 14:45:46 42° NNW 14:51:11 10° NE
Cosmos 2056 Rocket 4.4 14:41:51 10° NNW 14:46:18 29° NNE 14:50:46 10° E
Cosmos 1689 Rocket 2.9 14:43:35 10° NNE 14:46:24 33° E 14:49:13 10° SSE
SJ-7 4.5 14:42:21 10° SSE 14:46:33 68° ENE 14:50:49 10° NNW
Cosmos 1812 Rocket 3.8 14:42:47 10° SSW 14:47:15 75° WNW 14:51:44 10° NNE
Cosmos 1300 2.9 14:45:38 10° SSW 14:49:28 74° WNW 14:53:18 10° NNE
Cosmos 1656 Rocket 4.1 14:47:01 10° S 14:52:10 42° ESE 14:57:17 10° NE
Cosmos 1844 Rocket 3.7 14:50:02 10° WNW 14:55:01 31° N 14:59:59 10° ENE
NOAA 12 4.4 14:51:36 10° SE 14:56:41 47° ENE 15:01:47 10° NNW
Cosmos 2173 Rocket 4.3 14:50:55 10° NNW 14:57:01 72° W 15:03:05 10° S
Cosmos 1825 2.1 14:58:55 10° NNW 15:02:44 87° ENE 15:06:32 10° SSE
NOSS 3-2 (C) 3.8 14:57:15 10° WSW 15:03:39 82° NNW 15:11:00 10° ENE
YAOGAN 1 3.6 15:00:56 10° ESE 15:04:29 25° NE 15:08:02 10° N
Cosmos 2221 3.5 15:01:39 10° SE 15:05:15 26° E 15:08:54 10° NNE
Aureole 2 Rocket 2.9 15:02:28 10° S 15:05:45 42° ESE 15:09:10 10° NE
Cosmos 724 4.3 15:00:37 10° WNW 15:06:35 74° NNE 15:12:25 10° ESE
EP 3 4.3 15:06:06 10° SW 15:08:11 48° SSE 15:10:06 14° ENE
Cosmos 2219 3.4 15:03:50 10° NW 15:09:29 78° SW 15:15:07 10° SSE
Cosmos 2344 4.3 15:03:23 10° S 15:10:10 38° ESE 15:17:43 11° ENE
Cosmos 2208 Rocket 4.2 15:06:09 10° SW 15:11:22 75° NW 15:16:39 10° NNE
Cosmos 2233 Rocket 4.0 15:05:47 10° NNW 15:12:09 71° ENE 15:18:27 10° SSE
Okean-O 2.8 15:09:05 10° SE 15:13:24 53° ENE 15:17:45 10° NNW
Cosmos 1842 Rocket 4.1 15:09:35 10° SSE 15:13:44 38° E 15:17:54 10° NNE
USA 215 3.7 15:07:35 10° ESE 15:14:03 62° S 15:20:33 10° W
Cosmos 2263 4.2 15:09:16 10° SSW 15:14:54 75° SE 15:20:38 10° NE
Cosmos 1340 Rocket 3.0 15:12:21 10° S 15:16:17 51° E 15:20:16 10° NNE
Cosmos 1633 3.5 15:13:12 10° N 15:16:24 27° ENE 15:19:33 10° ESE
Cosmos-2242 3.0 15:12:14 10° SSW 15:16:31 89° WNW 15:20:49 10° NNE
Cosmos 1437 3.1 15:13:43 10° NNW 15:16:47 66° WSW 15:19:51 10° S
Cosmos 2297 4.4 15:12:23 10° WSW 15:18:00 51° NNW 15:23:39 10° NE
H-2A R/B 3.5 15:15:03 10° N 15:19:03 35° WNW 15:22:56 10° WSW
CZ-4B R/B 1.6 15:16:09 10° NNE 15:19:27 73° WNW 15:22:48 10° SSW
Cosmos 2369 Rocket 2.2 15:14:03 10° SW 15:19:42 88° NW 15:25:21 10° NE
Cosmos 1743 Rocket 3.6 15:20:51 10° NNW 15:25:13 86° WSW 15:29:36 10° S
Cosmos 1805 Rocket 3.7 15:21:13 10° N 15:25:30 52° ENE 15:29:47 10° SE
Landsat 5 4.4 15:22:43 10° N 15:26:32 45° WNW 15:30:13 10° SW
CZ-2D R/B 4.5 15:24:11 10° ESE 15:27:14 22° NE 15:30:18 10° N
CZ-4 R/B 1.9 15:24:24 10° SE 15:28:12 37° ENE 15:31:58 10° N
Cosmos 2227 Rocket 2.3 15:24:55 10° NW 15:30:38 83° SW 15:36:19 10° SE
Cosmos 2297 Rocket 2.4 15:25:15 10° NW 15:30:56 79° SW 15:36:36 10° SSE
Meteor 1-28 Rocket 3.7 15:28:54 10° N 15:32:35 60° WNW 15:36:14 10° SSW
CSL-04 Rocket 3.9 15:27:46 10° SE 15:32:49 45° ENE 15:37:52 10° NNW
Envisat 3.0 15:27:50 10° SE 15:32:51 62° ENE 15:37:53 10° NNW
Resurs 01 Rocket 3.7 15:32:42 10° NE 15:33:05 10° NNE 15:33:38 10° NNE
Cosmos 1464 Rocket 4.1 15:27:35 10° N 15:33:39 50° ENE 15:39:37 10° SE
Cosmos 1452 Rocket 4.5 15:30:38 10° NNW 15:35:17 30° NNE 15:38:35 16° E
Cosmos 44 3.4 15:31:23 10° W 15:35:51 52° N 15:38:59 18° ENE
Cosmos 1371 Rocket 4.3 15:31:48 10° NNW 15:36:53 47° NE 15:41:55 10° ESE
AQUARIUS 4.2 15:32:23 10° SSE 15:36:55 84° WSW 15:41:28 10° NNW
YAOGAN 3 4.5 15:35:50 10° SSE 15:40:12 76° ENE 15:44:36 10° NNW
Cosmos 1455 2.2 15:36:54 10° SSW 15:40:40 86° WNW 15:44:28 10° NNE
CORIOLIS 4.3 15:35:52 10° SSE 15:41:18 84° WSW 15:46:48 10° NNW
FengYun 1-2 T 4.2 15:36:15 10° SE 15:41:41 62° ENE 15:47:06 10° NNW
Cosmos 1814 Rocket 4.5 15:36:43 10° SW 15:42:03 63° NW 15:47:24 10° NNE
Cosmos 1072 Rocket 4.5 15:36:19 10° NNW 15:42:24 58° ENE 15:48:27 10° SSE
Okean O Rocket 3.6 15:39:48 10° SSW 15:43:46 32° W 15:47:45 10° NNW
Cosmos 1939 Rocket 3.8 15:40:31 10° ESE 15:44:06 29° ENE 15:47:42 10° N
YAOGAN 6 2.8 15:41:22 10° SE 15:44:43 44° ENE 15:48:05 10° N
Cosmos 2123 Rocket 3.9 15:38:54 10° S 15:45:06 78° E 15:51:19 10° NNE
Cosmos 1900 4.3 15:42:05 10° SW 15:47:07 82° SE 15:50:47 18° ENE
SeaSat 1 3.2 15:43:16 10° SSE 15:48:09 58° WSW 15:53:02 10° NW
SL-16 R/B 4.0 15:42:49 10° NNE 15:48:11 32° NW 15:53:30 10° WSW
OPS 6432 4.0 15:47:03 10° WSW 15:50:07 81° NNW 15:51:32 28° ENE
Cosmos 1500 Rocket 4.2 15:45:50 10° NNW 15:50:13 61° W 15:54:31 10° S
Meteor 2-10 Rocket 3.4 15:46:37 10° S 15:51:39 79° ESE 15:56:47 10° NNE
Cosmos 1763 Rocket 4.5 15:47:18 10° WSW 15:52:15 42° NW 15:57:09 10° NNE
Cosmos 841 Rocket 4.1 15:49:07 10° SW 15:54:18 54° NW 15:59:28 10° NNE
Cosmos 1943 Rocket 2.6 15:49:12 10° WSW 15:54:48 60° NW 15:59:46 14° NE
Cosmos 1633 Rocket 3.2 15:51:26 10° N 15:55:45 49° ENE 16:00:02 10° SE
Cosmos 2263 Rocket 2.5 15:50:23 10° NW 15:55:48 47° NNE 15:59:29 20° E
ASTEX 1 3.6 15:51:19 10° N 15:56:21 76° WNW 16:01:21 10° SSW
Cosmos 2082 3.8 15:52:01 10° NW 15:57:41 81° SW 16:03:19 10° SE
Cosmos 44 Rocket 3.5 15:53:36 10° W 15:58:24 60° NNW 16:01:20 22° ENE
Cosmos 836 Rocket 4.5 15:53:19 10° SSW 15:58:35 83° ESE 16:03:27 12° NE
H-2A R/B 3.4 15:55:28 10° S 15:59:17 58° WSW 16:03:04 10° NNW
Meteor 2-2 Rocket 4.5 15:54:03 10° SSE 15:59:39 49° E 16:05:09 10° NNE
EP 1 4.4 15:57:45 10° W 16:00:21 67° NNW 16:01:15 37° ENE
CENTAUR R/B 2.9 15:56:23 10° W 16:03:17 77° N 16:08:58 21° ENE
COSMO-SKYMED 1 3.4 16:01:32 21° NE 16:03:26 29° E 16:07:15 10° SSE
USA 238 DEB 3.8 15:58:26 10° W 16:05:25 76° N 16:10:27 22° E
Meteor 1-27 4.2 15:59:49 10° S 16:05:26 65° E 16:11:11 10° NNE
USA 238 3.8 15:58:32 10° W 16:05:30 76° N 16:10:33 22° E
Cosmos 1666 Rocket 3.5 16:01:54 10° NNW 16:06:20 66° ENE 16:10:41 10° SSE
Cosmos 1862 3.3 16:03:12 10° N 16:07:10 59° ENE 16:11:06 10° SSE
Cosmos 1933 Rocket 4.2 16:03:12 10° N 16:07:11 33° ENE 16:08:43 26° E
SMAP 4.1 16:03:51 10° S 16:08:22 49° W 16:12:56 10° NNW
Cosmos 220 Rocket 4.4 16:05:47 10° SW 16:10:00 61° NW 16:13:31 15° NNE
Sich 1 2.9 16:05:53 10° NNW 16:10:16 86° E 16:14:37 10° SSE
NOSS 3-2 (A) 3.8 16:06:04 10° W 16:12:43 76° N 16:17:46 23° E
ATLAS 5 CENTAUR R/B 3.7 16:08:37 10° WNW 16:13:37 37° SW 16:19:18 10° SSE
Cosmos 1238 Rocket 4.2 16:09:12 10° NNW 16:14:07 49° W 16:18:09 10° SSW
SPOT 3 Rocket 4.4 16:14:17 26° ENE 16:15:36 29° NE 16:20:04 10° N
Ariane Rocket 3.2 16:11:10 11° SE 16:15:49 47° ENE 16:20:42 10° NNW
Cosmos 1697 Rocket 4.1 16:12:37 10° SE 16:15:21 18° ESE 16:15:21 18° ESE
Cosmos 1689 Rocket 4.1 16:15:06 10° N 16:17:47 28° WNW 16:20:27 10° WSW
IRS-1A Rocket 4.5 16:12:41 10° SE 16:18:08 50° ENE 16:23:41 10° NNW
PSLV R/B 4.2 16:13:57 10° NNE 16:18:11 75° WNW 16:22:24 10° SSW
Cosmos 1867 4.0 16:14:02 10° SSW 16:19:11 44° SE 16:21:31 29° E
ATLAS 3B R/B 2.7 16:13:32 10° W 16:20:13 72° N 16:24:12 26° ENE
H-2A R/B 2.9 16:19:25 27° ENE 16:20:40 30° NE 16:25:16 10° N
CZ-2C R/B 4.1 16:22:37 24° NE 16:22:49 24° NE 16:26:48 10° N
TSX-5 4.4 16:18:48 10° SSW 16:23:08 61° SE 16:26:07 26° NE
Cosmos 540 Rocket 4.4 16:18:32 10° WSW 16:23:30 44° NW 16:27:51 13° NNE
Cosmos 2227 4.2 16:18:23 10° NW 16:24:11 68° NE 16:27:54 23° ESE
Cosmos 773 Rocket 4.1 16:21:28 10° S 16:26:29 52° ESE 16:29:11 26° NE
Cosmos 1624 Rocket 4.0 16:23:49 10° NNW 16:29:12 76° NE 16:33:26 17° SE
Cosmos 2056 Rocket 3.3 16:24:06 10° NNW 16:29:15 74° NE 16:32:57 19° SE
Cosmos 2034 Rocket 3.9 16:23:30 10° NNW 16:29:52 77° ENE 16:36:15 10° SSE
GEOS 3 Rocket 4.1 16:28:49 31° E 16:30:38 42° SE 16:35:37 10° SSW
Cosmos 2278 Rocket 3.3 16:26:06 10° WNW 16:31:10 31° N 16:33:45 22° NE
Cosmos 1656 Rocket 3.9 16:30:10 10° WSW 16:35:38 65° NW 16:39:18 21° NE
SJ-6B 4.4 16:37:22 20° NNE 16:37:22 20° NNE 16:39:07 10° N
Meteor 1-20 Rocket 4.5 16:30:36 10° NNW 16:36:18 49° ENE 16:39:18 26° ESE
Cosmos 1470 Rocket 3.5 16:32:39 10° NNW 16:37:08 65° ENE 16:40:42 16° SSE
COBE Rocket 3.7 16:32:39 10° NNE 16:37:37 83° ESE 16:42:23 10° SSW
CZ-3B R/B 4.4 16:36:07 10° SW 16:37:36 20° S 16:37:36 20° S
Meteor 2-11 Rocket 4.3 16:32:14 10° NNW 16:38:23 83° ENE 16:44:32 10° SSE
Aureole 2 Rocket 3.8 16:36:37 10° WSW 16:39:54 37° NW 16:41:41 22° N
YAOGAN 1 2.6 16:35:52 10° SSE 16:40:13 80° WSW 16:44:36 10° NNW
Cosmos 1844 Rocket 3.4 16:35:03 10° NW 16:40:16 38° NNE 16:41:52 31° ENE
Cosmos 1356 Rocket 3.4 16:36:46 10° S 16:40:54 61° ESE 16:42:31 35° NE
ARGOS 3.7 16:40:51 35° ENE 16:41:37 37° NE 16:46:32 10° NNW
Cosmos 2221 3.0 16:38:14 10° SSW 16:42:32 62° WNW 16:46:54 10° N
Cosmos 1538 Rocket 4.1 16:38:15 10° S 16:43:24 55° ESE 16:45:28 34° NE
Terra 4.1 16:48:29 10° NNE 16:48:29 10° NNE 16:48:48 10° NNE
NOAA 11 4.1 16:43:06 10° SSE 16:48:33 87° ENE 16:54:02 10° NNW
Okean-O 4.4 16:46:04 10° SSW 16:50:06 34° W 16:54:11 10° NNW
SJ-11-01 4.4 16:50:23 48° E 16:50:53 51° ENE 16:55:27 10° NNW
Cosmos 1656 3.9 16:45:56 10° S 16:51:06 42° ESE 16:51:32 41° ESE
CZ-4B R/B 4.3 16:49:30 10° NNW 16:51:19 14° NW 16:53:09 10° W
Cosmos 1633 3.5 16:47:54 10° NNW 16:51:27 48° W 16:54:59 10° S
SKYMED 2 3.5 16:50:13 36° NE 16:51:53 65° ESE 16:56:12 10° S
Cosmos 1634 Rocket 4.0 16:46:02 10° NNW 16:52:12 58° ENE 16:55:58 24° SE
Cosmos 1844 4.4 16:48:50 10° NW 16:54:18 40° NNE 16:55:39 35° NE
NOSS 3-2 (C) 3.8 16:48:19 10° WNW 16:55:03 78° N 16:58:26 36° E
USA 215 4.0 16:53:05 17° SE 16:57:48 45° SSW 17:04:03 10° W
Tsikada Rocket 4.2 16:54:11 10° SSE 17:00:16 49° E 17:06:25 10° NNE
Cosmos 1869 3.4 16:57:11 10° SSW 17:01:09 73° WNW 17:03:14 27° N
CZ-2D R/B 3.3 16:59:09 26° S 17:01:15 77° WSW 17:05:10 10° NNW
MOS 1 4.2 16:58:49 29° SE 17:01:46 69° ENE 17:07:25 10° NNW
CZ-4 R/B 2.6 16:59:15 10° S 17:03:14 44° W 17:07:09 10° NNW
Cosmos 2369 Rocket 3.2 16:59:05 10° W 17:04:21 40° NNW 17:07:13 24° NNE
Resurs 01 Rocket 3.3 17:10:17 21° NNE 17:10:17 21° NNE 17:12:10 10° N
USA 229 DEB 3.9 17:03:46 10° SSW 17:10:07 48° SE 17:11:21 44° ESE
USA 229 3.9 17:03:54 10° SSW 17:10:14 48° SE 17:11:24 44° ESE
CSL-04 Rocket 4.4 17:07:57 10° S 17:13:11 52° WSW 17:18:23 10° NNW
Timation 1 Rocket 4.2 17:07:35 10° NW 17:13:38 89° NE 17:15:41 44° SE
Cosmos 2227 Rocket 4.4 17:09:29 10° NW 17:14:02 25° WSW 17:18:35 10° SSW
Cosmos 2297 Rocket 4.5 17:09:52 10° NW 17:14:17 24° WSW 17:18:41 10° SSW
NOSS 3-1 (A) 4.2 17:10:12 10° S 17:14:23 33° SSE 17:14:23 33° SSE
Cosmos 1420 Rocket 3.8 17:10:50 10° NW 17:16:05 82° NE 17:17:03 60° SE
NOSS 3-1 (C) 3.7 17:10:36 10° SSW 17:16:09 46° SE 17:16:25 46° SE
Cosmos 2279 Rocket 4.0 17:10:56 10° N 17:17:04 57° ENE 17:18:01 51° ESE
Cosmos 44 3.0 17:13:00 10° WNW 17:17:24 72° N 17:17:24 72° N
Cosmos 371 Rocket 4.1 17:13:02 10° NNW 17:17:00 36° NNE 17:17:00 36° NNE
Cosmos 1452 Rocket 3.4 17:12:56 10° NNW 17:18:16 74° NE 17:18:55 65° ESE
Cosmos 1939 Rocket 3.4 17:16:21 23° S 17:18:50 61° WSW 17:22:57 10° NNW
Cosmos 2344 3.7 17:15:57 10° WSW 17:23:37 84° SSE 17:27:43 37° ENE
Geosat 3.9 17:30:47 63° NE 17:31:37 86° NW 17:36:40 10° SW
Cosmos 2180 Rocket 4.4 17:27:54 10° NNW 17:33:57 59° ENE 17:33:57 59° ENE
Cosmos 2369 4.4 17:32:37 10° SSW 17:36:23 39° S 17:36:23 39° S
Cosmos 1943 Rocket 3.4 17:34:25 10° WNW 17:39:34 34° NNW 17:41:16 28° NNE
COSMO-SKYMED 1 3.1 17:38:46 43° NNW 17:39:54 59° WNW 17:44:11 10° SW
Cosmos 2263 Rocket 2.3 17:34:30 10° NW 17:40:05 70° SW 17:41:12 55° S
Cosmos 44 Rocket 3.6 17:35:42 10° WNW 17:40:02 56° NNW 17:40:02 56° NNW
Cosmos 1933 Rocket 4.3 17:41:02 10° NNW 17:45:16 51° W 17:45:54 46° SW
CENTAUR R/B 2.9 17:47:13 10° WNW 17:54:32 86° NNE 17:56:08 62° ESE
SPOT 3 Rocket 3.6 17:54:56 78° NW 17:54:56 78° NW 17:59:52 10° NNW
Ariane Rocket 3.9 17:51:23 19° SSW 17:54:52 46° W 17:59:47 10° NNW
USA 238 DEB 3.8 17:49:33 10° WNW 17:56:36 75° SSW 17:57:54 61° SSE
USA 238 3.8 17:49:39 10° WNW 17:56:42 75° SSW 17:58:00 61° SSE
Cosmos 1697 Rocket 3.7 17:54:01 10° SSW 17:57:08 34° SSW 17:57:08 34° SSW
H-2A R/B 2.1 18:00:03 78° NW 18:00:03 78° NW 18:05:05 10° NNW
CZ-2C R/B 3.7 18:03:41 47° N 18:03:41 47° N 18:07:15 10° NNW
Cosmos 1867 3.7 17:57:06 10° WSW 18:02:11 74° W 18:02:11 74° W
NOSS 3-2 (A) 3.9 17:56:56 10° WNW 18:03:54 76° SSW 18:05:10 63° SSE
GEOS 3 Rocket 3.9 18:09:56 64° WSW 18:09:56 64° WSW 18:14:20 10° WSW
ATLAS 3B R/B 2.5 18:04:37 10° WNW 18:11:19 84° NNE 18:11:26 84° NE
Cosmos 2278 Rocket 3.1 18:11:08 10° NW 18:15:35 39° N 18:15:35 39° N
ARGOS 3.6 18:22:22 61° WNW 18:22:22 61° WNW 18:27:06 10° NNW
Terra 4.2 18:27:22 14° N 18:27:22 14° N 18:28:12 10° N
Cosmos 1844 Rocket 3.2 18:19:15 10° NW 18:23:31 53° NNW 18:23:31 53° NNW
Cosmos 1844 4.4 18:33:18 10° NW 18:37:32 50° NW 18:37:32 50° NW
Resurs 01 Rocket 4.0 18:47:50 18° NNW 18:47:50 18° NNW 18:49:02 10° NNW
NOSS 3-2 (C) 4.0 18:39:13 10° WNW 18:45:53 69° SW 18:45:53 69° SW
Cosmos 2369 Rocket 3.6 18:44:45 10° WNW 18:49:00 30° NNW 18:49:00 30° NNW
USA 229 DEB 4.2 18:53:58 10° WSW 18:58:48 51° WSW 18:58:48 51° WSW
USA 229 4.3 18:54:05 10° WSW 18:58:52 51° WSW 18:58:52 51° WSW
Cosmos 2263 Rocket 4.2 19:19:10 10° WNW 19:22:55 20° W 19:22:55 20° W
Cosmos 1943 Rocket 4.0 19:19:34 10° NW 19:22:47 27° NNW 19:22:47 27° NNW
Cosmos 2344 3.9 19:30:24 10° W 19:37:44 74° NW 19:37:44 74° NW
H-2A R/B 4.2 19:40:41 22° WNW 19:40:41 22° WNW 19:44:05 10° NW
CENTAUR R/B 3.7 19:37:51 10° WNW 19:43:18 47° W 19:43:18 47° W
Cosmos 2278 Rocket 4.3 19:55:28 10° NW 19:57:25 22° NW 19:57:25 22° NW
ATLAS 3B R/B 4.1 19:55:24 10° WNW 19:58:41 30° WNW 19:58:41 30° WNW
